Location: Beacon Field Observatory
(38.7700°N, 77.0829°W)
Time: 17:45:34
(UTC-05:00)

UKube-1 - Pass Details

Date: 10 December 2019
Orbit: 614 x 618 km, 98.5° (Epoch: 21 January)

Event Time Altitude Azimuth Distance (km) Brightness Sun altitude
Rises 17:45:33 0° 11° (N) 2,897 ? -11.3°
Reaches altitude 10° 17:47:44 10° 10° (N) 1,988 ? -11.7°
Maximum altitude 17:52:04 78° 285° (WNW) 636 ? -12.4°
Drops below altitude 10° 17:56:21 10° 199° (SSW) 1,975 ? -13.2°
Sets 17:58:31 0° 198° (SSW) 2,876 ? -13.6°
